timestamp,wind_dir_avg,wind_spd_avg,wind_spd_max_dir,wind_spd_gust,battery_voltage,lat,long
2022-02-23 00:04:00+00:00,52.0,4.91,67.0,6.52,12.49,47.59359,-54.27349
2022-02-23 00:14:01+00:00,88.0,5.09,88.0,6.8,12.41,47.59359,-54.27349
2022-02-23 00:24:01+00:00,61.0,3.27,72.0,4.75,12.41,47.59359,-54.27349
2022-02-23 00:34:01+00:00,86.0,5.41,84.0,6.8,12.41,47.59359,-54.27349
2022-02-23 00:44:01+00:00,75.0,4.67,79.0,7.05,12.41,47.59359,-54.27349
2022-02-23 00:54:01+00:00,57.0,4.57,60.0,5.35,12.41,47.59359,-54.27349
2022-02-23 01:04:01+00:00,59.0,5.03,68.0,7.04,12.41,47.59359,-54.27349
2022-02-23 01:14:00+00:00,79.0,4.92,80.0,7.04,12.41,47.59359,-54.27349
2022-02-23 01:24:00+00:00,69.0,4.2,67.0,5.07,12.41,47.59359,-54.27349
2022-02-23 01:34:00+00:00,54.0,4.58,56.0,5.51,12.41,47.59359,-54.27349
2022-02-23 01:44:00+00:00,80.0,5.2,82.0,6.76,12.41,47.59359,-54.27349
2022-02-23 01:54:00+00:00,92.0,5.57,87.0,6.59,12.41,47.59359,-54.27349
2022-02-23 02:04:00+00:00,88.0,3.98,86.0,5.67,12.41,47.59359,-54.27349
2022-02-23 02:14:00+00:00,81.0,5.4,81.0,6.94,12.41,47.59359,-54.27349
2022-02-23 02:24:00+00:00,77.0,4.81,81.0,6.76,12.41,47.59359,-54.27349
2022-02-23 02:34:00+00:00,79.0,4.61,83.0,6.89,12.41,47.59359,-54.27349
2022-02-23 02:44:00+00:00,65.0,5.17,73.0,7.04,12.41,47.59359,-54.27349
2022-02-23 02:54:00+00:00,67.0,4.43,70.0,5.08,12.41,47.59359,-54.27349
2022-02-23 03:04:00+00:00,94.0,5.38,96.0,6.71,12.41,47.59359,-54.27349
2022-02-23 03:14:01+00:00,81.0,4.38,77.0,6.45,12.33,47.59359,-54.27349
2022-02-23 03:24:01+00:00,97.0,4.17,104.0,6.49,12.33,47.59359,-54.27349
2022-02-23 03:34:01+00:00,109.0,4.63,99.0,6.54,12.33,47.59359,-54.27349
2022-02-23 03:44:01+00:00,104.0,4.28,81.0,6.22,12.33,47.59359,-54.27349
2022-02-23 03:54:01+00:00,94.0,4.94,113.0,6.44,12.33,47.59359,-54.27349
2022-02-23 04:04:01+00:00,129.0,5.22,133.0,7.33,12.33,47.59359,-54.27349
2022-02-23 04:14:01+00:00,126.0,5.22,128.0,6.23,12.33,47.59359,-54.27349
2022-02-23 04:24:01+00:00,138.0,5.85,141.0,7.55,12.33,47.59359,-54.27349
2022-02-23 04:34:01+00:00,133.0,5.02,128.0,6.36,12.33,47.59359,-54.27349
2022-02-23 04:44:01+00:00,134.0,5.48,136.0,6.66,12.33,47.59359,-54.27349
2022-02-23 04:54:01+00:00,140.0,6.35,149.0,8.36,12.33,47.59359,-54.27349
2022-02-23 05:04:01+00:00,139.0,6.22,132.0,7.29,12.33,47.59359,-54.27349
2022-02-23 05:14:00+00:00,140.0,6.27,150.0,8.41,12.33,47.59359,-54.27349
2022-02-23 05:24:00+00:00,135.0,5.74,143.0,6.59,12.33,47.59359,-54.27349
2022-02-23 05:34:00+00:00,135.0,5.98,133.0,7.3,12.33,47.59359,-54.27349
2022-02-23 05:44:00+00:00,140.0,6.72,140.0,7.81,12.33,47.59359,-54.27349
2022-02-23 05:54:00+00:00,138.0,6.22,139.0,7.57,12.33,47.59359,-54.27349
2022-02-23 06:04:00+00:00,136.0,6.07,133.0,7.22,12.33,47.59359,-54.27349
2022-02-23 06:14:01+00:00,143.0,5.91,142.0,7.16,12.33,47.59359,-54.27349
2022-02-23 06:24:01+00:00,145.0,6.81,152.0,8.35,12.33,47.59359,-54.27349
2022-02-23 06:34:01+00:00,148.0,6.6,145.0,7.69,12.33,47.59359,-54.27349
2022-02-23 06:44:01+00:00,146.0,7.8,150.0,8.8,12.33,47.59359,-54.27349
2022-02-23 06:54:01+00:00,160.0,5.88,151.0,7.09,12.33,47.59359,-54.27349
2022-02-23 07:04:01+00:00,159.0,6.5,169.0,7.52,12.33,47.59359,-54.27349
2022-02-23 07:14:00+00:00,157.0,5.85,159.0,7.42,12.33,47.59359,-54.27349
2022-02-23 07:24:00+00:00,156.0,6.69,157.0,7.41,12.33,47.59359,-54.27349
2022-02-23 07:34:00+00:00,169.0,8.86,173.0,10.78,12.33,47.59359,-54.27349
2022-02-23 07:44:00+00:00,162.0,10.4,162.0,12.42,12.33,47.59359,-54.27349
2022-02-23 07:54:00+00:00,162.0,10.67,162.0,12.07,12.33,47.59359,-54.27349
2022-02-23 08:04:00+00:00,161.0,9.53,161.0,10.89,12.33,47.59359,-54.27349
2022-02-23 08:14:01+00:00,155.0,10.91,156.0,12.37,12.25,47.59359,-54.27349
2022-02-23 08:24:01+00:00,165.0,9.9,164.0,11.73,12.25,47.59359,-54.27349
2022-02-23 08:34:01+00:00,159.0,9.6,162.0,11.45,12.25,47.59359,-54.27349
2022-02-23 08:44:01+00:00,165.0,8.96,167.0,10.47,12.25,47.59359,-54.27349
2022-02-23 08:54:01+00:00,166.0,7.3,165.0,8.52,12.25,47.59359,-54.27349
2022-02-23 09:04:01+00:00,161.0,8.98,161.0,10.45,12.25,47.59359,-54.27349
2022-02-23 09:14:00+00:00,155.0,8.56,159.0,10.39,12.25,47.59359,-54.27349
2022-02-23 09:24:00+00:00,159.0,7.65,139.0,9.06,12.25,47.59359,-54.27349
2022-02-23 09:34:00+00:00,149.0,6.05,148.0,7.15,12.25,47.59359,-54.27349
2022-02-23 09:44:00+00:00,163.0,6.86,165.0,7.91,12.25,47.59359,-54.27349
2022-02-23 09:54:00+00:00,165.0,5.39,166.0,6.99,12.25,47.59359,-54.27349
2022-02-23 10:04:00+00:00,174.0,5.5,174.0,6.74,12.25,47.59359,-54.27349
2022-02-23 10:14:00+00:00,168.0,5.17,171.0,6.33,12.25,47.59359,-54.27349
2022-02-23 10:24:00+00:00,174.0,4.31,172.0,4.84,12.25,47.59359,-54.27349
2022-02-23 10:34:00+00:00,177.0,4.32,170.0,5.0,12.25,47.59359,-54.27349
2022-02-23 10:44:00+00:00,180.0,4.76,204.0,5.7,12.25,47.59359,-54.27349
2022-02-23 10:54:00+00:00,174.0,4.55,182.0,6.19,12.25,47.59359,-54.27349
2022-02-23 11:04:00+00:00,183.0,5.51,205.0,6.28,12.25,47.59359,-54.27349
2022-02-23 11:14:00+00:00,179.0,6.33,174.0,7.52,12.25,47.59359,-54.27349
2022-02-23 11:24:00+00:00,181.0,7.05,182.0,8.85,12.25,47.59359,-54.27349
2022-02-23 11:34:00+00:00,179.0,8.86,179.0,10.42,12.25,47.59359,-54.27349
2022-02-23 11:44:00+00:00,178.0,9.42,180.0,11.37,12.25,47.59359,-54.27349
2022-02-23 11:54:00+00:00,179.0,11.19,175.0,12.84,12.25,47.59359,-54.27349
2022-02-23 12:04:00+00:00,178.0,13.31,171.0,15.3,12.25,47.59359,-54.27349
2022-02-23 12:14:01+00:00,178.0,10.99,171.0,13.05,12.25,47.59359,-54.27349
2022-02-23 12:24:01+00:00,180.0,12.44,193.0,14.87,12.25,47.59359,-54.27349
2022-02-23 12:34:01+00:00,177.0,13.9,177.0,16.1,12.25,47.59359,-54.27349
2022-02-23 12:44:01+00:00,177.0,15.35,172.0,18.4,12.25,47.59359,-54.27349
2022-02-23 12:54:01+00:00,177.0,16.02,179.0,19.59,12.25,47.59359,-54.27349
2022-02-23 13:04:01+00:00,180.0,14.47,179.0,17.08,12.25,47.59359,-54.27349
2022-02-23 13:14:00+00:00,185.0,11.96,182.0,14.05,12.41,47.59359,-54.27349
2022-02-23 13:24:00+00:00,183.0,15.74,178.0,17.83,12.41,47.59359,-54.27349
2022-02-23 13:34:00+00:00,186.0,15.0,193.0,18.43,12.41,47.59359,-54.27349
2022-02-23 13:44:00+00:00,186.0,15.53,192.0,19.04,12.41,47.59359,-54.27349
2022-02-23 13:54:00+00:00,187.0,16.12,183.0,19.19,12.41,47.59359,-54.27349
2022-02-23 14:04:00+00:00,189.0,15.22,181.0,18.22,12.41,47.59359,-54.27349
2022-02-23 14:14:01+00:00,188.0,15.04,191.0,17.78,12.73,47.59359,-54.27349
2022-02-23 14:24:01+00:00,186.0,13.27,192.0,16.01,12.73,47.59359,-54.27349
2022-02-23 14:34:01+00:00,188.0,15.81,183.0,20.4,12.73,47.59359,-54.27349
2022-02-23 14:44:01+00:00,192.0,16.03,188.0,20.62,12.73,47.59359,-54.27349
2022-02-23 14:54:01+00:00,190.0,16.16,188.0,19.18,12.73,47.59359,-54.27349
2022-02-23 15:04:01+00:00,193.0,16.09,194.0,17.7,12.73,47.59359,-54.27349
2022-02-23 15:14:00+00:00,193.0,17.63,187.0,21.45,13.05,47.59359,-54.27349
2022-02-23 15:24:00+00:00,190.0,19.18,188.0,21.78,13.05,47.59359,-54.27349
2022-02-23 15:34:00+00:00,193.0,17.48,193.0,22.03,13.05,47.59359,-54.27349
2022-02-23 15:44:00+00:00,192.0,18.82,203.0,22.82,13.05,47.59359,-54.27349
2022-02-23 15:54:00+00:00,192.0,16.82,187.0,21.54,13.05,47.59359,-54.27349
2022-02-23 16:04:00+00:00,191.0,18.18,188.0,20.9,13.05,47.59359,-54.27349
2022-02-23 16:14:00+00:00,192.0,18.77,189.0,22.29,13.21,47.59359,-54.27349
2022-02-23 16:24:00+00:00,192.0,17.9,193.0,20.99,13.21,47.59359,-54.27349
2022-02-23 16:34:00+00:00,194.0,18.1,206.0,21.38,13.21,47.59359,-54.27349
2022-02-23 16:44:00+00:00,192.0,17.56,188.0,20.76,13.21,47.59359,-54.27349
2022-02-23 16:54:00+00:00,197.0,18.51,213.0,22.82,13.21,47.59359,-54.27349
2022-02-23 17:04:00+00:00,194.0,17.76,211.0,24.18,13.21,47.59359,-54.27349
2022-02-23 17:14:00+00:00,195.0,18.84,211.0,22.1,12.97,47.59359,-54.27349
2022-02-23 17:24:00+00:00,198.0,20.36,213.0,24.53,12.97,47.59359,-54.27349
2022-02-23 17:34:00+00:00,195.0,19.61,209.0,26.09,12.97,47.59359,-54.27349
2022-02-23 17:44:00+00:00,218.0,19.03,220.0,20.9,12.97,47.59359,-54.27349
2022-02-23 17:54:00+00:00,205.0,21.82,207.0,28.05,12.97,47.59359,-54.27349
2022-02-23 18:04:00+00:00,192.0,19.33,212.0,23.7,12.97,47.59359,-54.27349
2022-02-23 18:14:01+00:00,195.0,19.49,211.0,24.29,12.97,47.59359,-54.27349
2022-02-23 18:24:01+00:00,202.0,19.84,208.0,26.8,12.97,47.59359,-54.27349
2022-02-23 18:34:01+00:00,201.0,24.58,207.0,28.74,12.97,47.59359,-54.27349
2022-02-23 18:44:01+00:00,202.0,21.28,204.0,27.02,12.97,47.59359,-54.27349
2022-02-23 18:54:01+00:00,195.0,20.77,213.0,25.81,12.97,47.59359,-54.27349
2022-02-23 19:04:01+00:00,204.0,22.22,206.0,29.55,12.97,47.59359,-54.27349
2022-02-23 19:14:01+00:00,200.0,19.94,208.0,25.7,12.73,47.59359,-54.27349
2022-02-23 19:24:01+00:00,207.0,24.04,206.0,28.91,12.73,47.59359,-54.27349
2022-02-23 19:34:01+00:00,200.0,19.73,212.0,24.94,12.73,47.59359,-54.27349
2022-02-23 19:44:01+00:00,213.0,21.27,209.0,26.22,12.73,47.59359,-54.27349
2022-02-23 19:54:01+00:00,210.0,21.25,211.0,25.04,12.73,47.59359,-54.27349
2022-02-23 20:04:01+00:00,213.0,21.01,209.0,24.66,12.73,47.59359,-54.27349
2022-02-23 20:14:00+00:00,215.0,20.77,209.0,23.9,12.57,47.59359,-54.27349
2022-02-23 20:24:00+00:00,213.0,18.33,216.0,22.93,12.57,47.59359,-54.27349
2022-02-23 20:34:00+00:00,215.0,19.66,209.0,22.65,12.57,47.59359,-54.27349
2022-02-23 20:44:00+00:00,213.0,20.94,211.0,25.05,12.57,47.59359,-54.27349
2022-02-23 20:54:00+00:00,217.0,19.12,216.0,22.16,12.57,47.59359,-54.27349
2022-02-23 21:04:00+00:00,220.0,17.8,214.0,22.64,12.57,47.59359,-54.27349
2022-02-23 21:14:01+00:00,230.0,14.84,225.0,17.86,12.49,47.59359,-54.27349
2022-02-23 21:24:01+00:00,223.0,16.27,227.0,18.84,12.49,47.59359,-54.27349
2022-02-23 21:34:01+00:00,221.0,17.54,220.0,19.9,12.49,47.59359,-54.27349
2022-02-23 21:44:01+00:00,222.0,12.98,225.0,16.54,12.49,47.59359,-54.27349
2022-02-23 21:54:01+00:00,227.0,13.88,224.0,16.53,12.49,47.59359,-54.27349
2022-02-23 22:04:01+00:00,225.0,14.51,229.0,17.88,12.49,47.59359,-54.27349
2022-02-23 22:14:01+00:00,219.0,16.53,218.0,19.12,12.41,47.59359,-54.27349
2022-02-23 22:24:01+00:00,221.0,15.82,224.0,18.58,12.41,47.59359,-54.27349
2022-02-23 22:34:01+00:00,212.0,13.83,220.0,16.92,12.41,47.59359,-54.27349
2022-02-23 22:44:01+00:00,216.0,13.9,226.0,16.85,12.41,47.59359,-54.27349
2022-02-23 22:54:01+00:00,208.0,11.81,212.0,14.67,12.41,47.59359,-54.27349
2022-02-23 23:04:01+00:00,211.0,11.82,223.0,14.12,12.41,47.59359,-54.27349
2022-02-23 23:14:00+00:00,213.0,12.1,229.0,14.93,12.41,47.59359,-54.27349
2022-02-23 23:24:00+00:00,213.0,11.9,215.0,14.26,12.41,47.59359,-54.27349
2022-02-23 23:34:00+00:00,211.0,11.36,215.0,12.95,12.41,47.59359,-54.27349
2022-02-23 23:44:00+00:00,213.0,10.93,216.0,12.58,12.41,47.59359,-54.27349
2022-02-23 23:54:00+00:00,213.0,11.02,222.0,13.61,12.41,47.59359,-54.27349
